Wind_Speed
1 3 7 11 5 3 5 4 3 2 0 3 4 6 7 4 3 5 6 7 9 11 8 19 23 25 27 28 28 27 24 21 19 18 15 11 10 10 9 9 10 10 11 12
3 7 5 4 5 4 4 3 4 0 2 2 3 10 5 1 2 0 3 6 8 5 7 13 22 24 27 30 29 28 27 24 21 19 16 10 12 10 10 9 10 10 10 11
6 2 5 6 4 6 4 5 4 2 2 3 3 7 2 3 4 5 6 4 4 9 10 9 17 23 27 29 31 30 29 26 23 20 16 11 13 10 11 11 11 11 11 11
3 1 5 3 3 5 5 2 4 5 4 3 2 4 3 1 4 5 7 8 7 3 5 7 14 18 26 28 30 30 30 27 24 22 19 16 16 13 12 13 12 11 11 11
4 4 4 3 3 2 3 2 5 3 4 2 1 3 5 1 3 4 6 8 7 5 5 7 11 16 22 25 28 29 29 27 25 23 20 17 15 12 10 13 13 12 11 11
3 1 2 2 3 2 9 6 6 4 3 2 3 4 5 3 2 1 3 6 7 6 6 7 9 12 16 18 21 24 26 27 25 23 20 18 16 14 12 14 15 14 13 13
1 1 1 2 6 4 3 5 2 3 2 4 1 2 7 1 1 1 3 6 6 6 6 6 6 8 12 15 17 20 23 26 24 22 21 19 17 15 14 14 15 16 16 16
6 3 4 2 1 6 4 5 5 7 4 2 2 5 3 2 2 2 4 4 7 9 7 7 8 7 7 10 12 16 21 23 22 22 21 20 18 18 17 15 15 16 17 16
5 2 0 3 1 2 5 3 4 7 2 2 2 4 0 2 2 3 5 6 7 8 8 8 12 11 8 6 7 10 14 17 18 20 19 19 19 19 19 18 16 17 17 17
5 4 1 1 1 4 2 3 3 2 3 4 3 4 4 6 7 5 4 5 5 6 8 8 12 14 13 9 4 3 6 9 11 14 16 17 18 19 19 19 19 18 18 18
4 3 0 1 5 7 2 1 4 3 3 5 2 5 3 5 7 8 6 4 4 5 6 6 10 14 14 13 11 8 3 1 5 8 11 14 16 17 19 19 20 20 19 20
1 5 3 2 1 1 1 3 4 4 5 2 2 5 1 1 5 8 7 5 4 5 5 6 10 13 16 16 14 11 9 6 3 2 5 9 11 14 16 18 19 20 21 22
6 0 3 2 2 1 3 3 3 3 3 5 5 5 1 3 4 3 6 4 4 4 6 6 10 11 11 12 13 13 11 9 6 4 4 4 5 9 13 15 17 18 20 22
4 3 4 6 3 4 4 5 3 4 3 5 5 3 4 6 8 6 5 4 4 4 5 5 6 8 8 9 10 11 11 10 9 7 5 5 5 6 8 11 13 16 19 22
2 4 3 2 3 2 3 6 10 7 4 6 5 8 7 10 9 6 5 5 4 3 5 4 4 6 7 9 9 10 10 10 9 9 9 8 7 7 9 12 13 14 15 18
2 3 3 2 3 4 1 4 8 7 2 1 3 5 3 2 4 5 6 6 4 4 1 3 4 7 9 9 9 9 10 10 13 11 11 11 11 11 11 14 14 13 14 16
3 6 3 3 3 2 5 10 12 6 3 8 7 9 6 5 7 6 7 5 5 3 3 2 4 5 6 9 11 9 9 10 11 12 13 13 13 13 14 15 15 16 16 16
5 5 3 3 2 2 6 1 2 4 5 5 1 4 5 6 5 2 2 5 3 2 3 3 4 9 10 11 11 12 12 12 12 13 13 15 16 17 17 16 16 17 17 18
3 4 3 4 3 5 1 5 7 7 6 10 7 8 7 7 4 5 3 2 3 2 4 7 10 12 12 13 13 12 13 12 12 14 15 15 16 19 19 19 19 19 20 20
4 5 4 3 5 7 4 2 3 3 5 8 7 10 14 7 4 3 4 3 6 10 12 13 12 12 12 13 14 14 12 12 14 15 17 18 19 20 20 22 22 22 23 23
3 2 4 3 3 8 4 3 3 6 6 4 8 12 13 5 3 7 7 6 9 11 12 12 13 14 15 15 15 13 11 11 17 19 19 20 20 21 19 20 22 23 24 25
7 7 4 3 2 8 3 4 6 3 3 4 4 4 7 9 8 7 7 5 10 12 14 15 16 15 14 13 12 11 9 12 16 21 21 20 20 19 19 20 22 22 23 24
1 5 5 8 5 1 2 3 1 1 4 4 9 8 9 8 4 6 4 6 10 12 14 14 14 13 14 14 13 13 14 16 18 18 18 19 19 19 18 19 20 20 22 21
3 3 2 3 2 2 1 3 3 4 7 7 9 6 4 5 5 6 5 6 11 12 15 14 14 15 16 15 14 13 15 15 15 15 15 17 19 19 20 20 20 20 21 20
3 4 4 2 2 1 2 1 5 8 8 9 8 6 6 6 6 5 4 8 9 8 10 12 14 15 15 15 15 16 16 16 15 15 15 14 15 18 19 20 22 22 25 26
2 4 4 4 2 3 1 6 6 6 6 5 7 7 10 9 6 8 6 5 6 8 10 11 12 13 15 16 17 17 17 17 16 14 13 14 13 12 11 15 17 16 19 20
Wind_Direction
77 125 203 202 182 126 133 154 179 181 99 161 232 263 259 248 207 223 228 216 210 213 204 206 202 203 200 199 195 192 187 186 184 177 171 168 166 163 160 160 162 162 162 165
77 228 203 117 159 146 148 148 230 139 81 144 10 281 274 190 97 33 261 240 229 180 181 187 196 199 200 197 198 195 193 191 192 190 186 184 177 175 173 170 171 171 171 170
161 202 130 140 141 149 180 178 190 193 89 62 319 291 157 65 97 45 20 326 281 211 188 179 184 192 198 199 198 198 197 196 194 192 190 179 173 171 179 182 181 180 179 180
220 129 142 145 174 141 186 205 123 129 102 220 1 264 295 147 122 48 5 3 344 268 175 163 178 188 195 200 200 200 198 198 197 197 199 202 193 185 197 194 189 188 187 188
224 157 155 160 164 181 167 86 100 93 101 64 351 80 262 170 164 5 359 359 355 7 161 163 173 187 197 201 201 202 201 200 200 201 206 205 204 205 199 195 195 196 196 195
89 32 46 112 73 46 151 79 55 59 87 43 234 148 275 183 124 349 354 4 6 32 78 105 147 171 184 193 200 202 202 202 203 205 208 212 213 209 202 199 200 202 204 205
80 64 57 86 86 28 86 94 19 357 2 217 186 85 247 138 74 92 26 14 19 38 71 93 115 147 168 180 189 196 200 202 204 209 213 217 220 220 220 217 213 211 211 212
159 253 169 347 134 172 172 150 162 198 196 199 75 230 259 99 91 62 62 62 46 47 46 55 73 107 148 172 184 193 199 204 208 214 219 221 224 226 227 228 227 228 228 226
139 174 31 48 37 66 186 187 135 104 57 48 204 278 271 131 110 95 80 67 54 48 44 46 55 69 93 141 175 193 202 211 216 221 224 226 229 230 231 233 235 236 235 231
186 102 356 143 134 37 136 155 92 3 141 231 277 279 225 196 187 156 114 93 72 57 49 43 45 53 64 71 95 169 207 220 224 230 233 237 239 239 238 239 242 242 239 234
126 95 270 131 199 177 113 9 47 109 112 167 169 258 194 194 174 163 153 125 92 66 53 46 47 56 64 68 66 69 76 231 242 243 244 244 245 244 241 242 248 248 244 238
146 127 152 161 300 195 51 194 161 134 228 79 145 268 1 266 165 151 155 129 90 70 56 51 54 59 57 56 54 52 51 49 26 298 263 258 255 247 243 246 250 249 245 239
193 216 92 3 15 27 212 178 117 109 90 197 142 255 46 127 150 164 150 140 95 71 58 40 43 43 39 42 46 46 43 39 30 15 343 305 272 253 251 254 255 252 247 243
131 117 160 191 171 120 171 181 133 128 127 169 216 218 231 195 184 179 159 103 104 97 85 69 62 56 45 37 31 33 36 30 21 14 6 347 313 287 272 268 266 263 257 250
136 162 144 85 63 78 173 165 183 189 189 168 231 191 217 197 191 179 160 145 132 88 104 57 58 47 32 33 26 21 18 14 6 354 342 325 307 301 296 280 274 270 261 254
0 140 97 334 108 66 260 207 194 212 226 37 108 266 202 150 133 160 168 157 153 147 158 111 52 28 27 19 7 1 1 357 356 345 331 322 313 296 284 281 284 281 273 258
116 136 111 250 38 31 334 223 182 186 196 143 180 213 154 161 166 176 178 165 163 207 233 199 34 12 353 353 357 340 335 339 345 344 335 323 315 309 299 282 265 267 266 254
130 104 89 165 22 328 245 160 143 173 212 182 77 148 149 144 117 143 210 151 171 163 46 39 359 347 341 339 333 324 329 322 319 325 329 327 315 297 296 281 265 254 251 254
20 119 101 141 204 306 158 199 165 169 259 182 160 150 132 141 121 59 112 143 110 134 27 16 5 353 347 341 339 324 302 306 307 311 308 313 310 297 285 273 262 249 240 231
61 63 110 116 162 219 251 185 183 139 302 174 158 163 152 154 127 193 117 98 53 54 37 15 5 359 352 351 343 329 314 295 297 306 312 310 301 292 282 277 265 252 241 240
102 54 172 169 229 288 251 152 163 104 245 133 152 156 158 155 203 121 107 64 64 41 31 15 21 21 15 359 353 343 331 307 315 314 308 304 300 292 274 270 265 257 248 243
163 152 183 96 78 276 124 106 166 190 47 105 113 134 131 123 126 119 96 77 52 36 29 28 24 22 16 5 356 344 339 323 304 297 298 297 295 288 273 266 260 253 244 235
263 181 179 183 210 105 51 76 11 337 125 123 129 131 139 131 123 117 112 70 50 42 36 35 31 28 29 24 18 1 342 334 328 323 307 301 302 290 274 263 253 236 234 218
252 172 141 77 190 153 114 68 53 65 102 108 121 108 109 120 101 98 92 61 39 35 30 28 28 29 23 22 19 10 355 348 344 336 324 306 305 290 274 259 246 230 218 208
195 112 163 275 304 35 253 137 122 98 94 92 75 76 88 96 85 81 77 56 43 36 31 30 25 23 19 17 16 11 3 358 355 353 346 330 303 287 267 252 240 229 231 222
194 183 166 218 191 142 137 136 126 106 100 92 106 85 66 94 97 111 100 79 48 32 24 21 21 19 16 12 11 8 6 3 360 354 347 346 333 304 277 248 244 240 247 237
Height
784 792 795 791 793 790 798 798 797 799 802 801 805 806 800 801 807 808 810 812 813 814 817 821 824 828 832 837 841 845 849 853 856 859 862 865 867 869 871 872 874 876 878 880
790 792 786 787 792 792 795 796 800 801 803 803 809 799 797 799 805 808 808 809 810 813 815 818 822 826 829 833 838 843 847 850 854 858 861 864 866 869 871 873 874 876 878 880
787 781 785 785 794 796 798 801 802 797 806 815 813 800 792 804 808 812 814 813 808 807 811 815 819 822 827 831 835 839 844 848 853 857 861 863 866 868 870 872 874 876 878 880
782 782 783 785 789 794 799 797 797 803 810 816 821 813 793 801 805 813 817 814 811 806 808 812 816 820 824 828 833 837 842 847 851 855 859 861 863 866 868 871 873 875 878 880
783 784 784 786 787 791 795 802 806 814 828 822 817 832 796 802 800 811 816 815 813 808 807 810 814 819 823 827 831 835 840 845 849 853 857 860 863 865 867 870 872 875 877 879
788 792 791 793 802 798 809 809 819 832 832 846 839 822 798 798 806 813 818 817 816 812 810 812 816 819 823 827 831 835 839 844 849 852 855 858 861 863 866 868 871 873 876 878
788 792 796 795 800 800 802 805 828 828 842 817 840 836 798 812 819 819 819 820 819 816 815 816 818 820 823 826 830 834 838 843 847 851 854 856 859 861 864 866 868 871 873 875
788 791 795 800 797 797 802 805 814 812 817 810 838 823 797 819 823 823 823 823 822 821 820 820 821 823 825 828 831 834 837 841 845 848 851 854 857 859 861 864 866 868 870 873
786 785 803 803 803 802 804 807 814 852 870 842 814 810 820 823 822 824 825 826 827 827 826 825 825 825 827 829 831 833 837 840 843 846 849 852 854 856 858 861 863 865 868 870
776 792 804 805 804 807 805 811 810 840 837 826 814 814 791 821 820 823 826 829 830 830 829 829 829 829 830 831 833 835 837 839 842 845 847 849 852 854 856 859 860 863 865 867
784 787 807 803 804 806 813 824 822 821 832 825 829 800 811 809 815 821 829 830 831 831 832 833 833 833 833 834 834 836 837 839 841 843 845 846 848 850 852 855 857 860 862 864
782 796 813 797 823 827 815 809 809 805 829 864 849 812 818 825 824 826 829 829 832 833 835 835 835 835 835 835 836 837 838 839 840 841 843 844 846 847 849 851 853 856 857 859
785 795 809 792 813 817 815 817 829 834 839 848 824 813 822 826 829 833 832 830 833 834 836 837 837 837 837 838 838 839 839 840 840 841 842 843 843 845 846 848 850 852 853 855
772 786 786 778 775 801 814 810 830 827 834 827 828 818 820 819 820 826 828 834 836 837 838 839 839 840 840 840 839 839 839 840 840 841 841 842 843 844 844 846 847 848 849 851
777 783 784 793 799 803 808 815 811 830 825 798 813 811 814 813 819 826 834 835 837 840 839 841 841 841 842 841 841 840 840 839 839 840 841 841 842 842 843 843 844 844 845 846
788 797 810 824 812 830 823 830 817 816 841 849 863 838 822 836 831 830 828 833 839 840 843 842 841 841 840 840 840 840 840 839 839 839 839 840 841 840 841 842 842 842 842 843
796 805 814 815 818 833 826 808 811 808 825 820 818 802 816 820 820 824 826 831 839 843 843 842 842 841 841 840 840 840 839 838 838 838 838 838 838 838 838 839 839 840 840 841
802 812 827 831 829 825 792 821 815 808 818 829 828 824 817 818 826 837 841 838 843 843 842 842 842 841 840 839 838 838 837 836 836 836 836 836 835 835 835 836 836 836 836 838
793 797 826 826 830 792 785 802 806 795 783 811 813 816 820 828 830 833 835 839 840 841 841 840 840 838 837 837 836 835 835 834 834 833 833 833 833 832 832 832 833 833 833 834
798 803 808 844 830 801 778 784 791 797 795 802 808 813 814 825 828 830 836 838 839 839 839 838 837 836 835 834 833 831 831 831 830 830 829 829 829 828 828 828 828 829 830 830
811 817 814 825 845 806 790 792 796 796 792 801 802 805 814 825 828 829 836 838 839 839 838 837 836 834 833 832 830 829 829 828 828 827 826 825 824 823 822 823 823 824 825 826
801 810 819 834 853 798 790 790 788 796 801 804 811 819 823 823 828 833 837 839 839 838 837 835 834 834 833 831 829 829 828 826 825 823 821 819 818 817 817 817 818 818 820 821
796 790 795 793 790 795 800 798 802 800 800 807 809 814 818 824 828 831 837 838 838 838 838 837 836 835 833 832 830 827 825 823 820 818 816 814 813 813 812 812 813 814 815 816
788 793 798 793 795 799 801 804 804 803 806 810 812 817 821 825 827 832 835 837 837 837 837 838 837 835 834 832 830 827 824 821 818 815 813 812 811 810 809 809 809 809 810 812
793 794 790 798 810 807 806 805 808 809 812 814 817 820 824 826 830 833 836 838 839 840 840 838 837 835 833 831 828 825 823 819 816 813 811 810 808 807 806 806 806 806 806 808
801 792 792 788 803 805 807 808 810 812 815 818 821 826 829 830 833 836 838 840 840 840 839 837 836 833 831 828 826 823 821 818 815 813 811 810 808 806 805 804 804 805 805 806